Location: Ottawa
(45.4170°N, 75.7000°W)
Time: 18:48:30
(UTC-04:00)

Iridium 91 - Visible Passes

Search period start: 25 July 2017 00:00
Search period end: 04 August 2017 00:00
Orbit: 776 x 779 km, 86.4° (Epoch: 25 July)

Date Brightness Start Highest point End Pass type
(mag) Time Alt. Az. Time Alt. Az. Time Alt. Az.
25 Jul 7.8 00:30:42 11° WSW 00:33:55 18° WNW 00:37:23 10° NNW visible
25 Jul 6.3 22:16:38 21° SE 22:19:20 35° E 22:24:03 10° NNE visible
25 Jul 7.0 23:57:05 18° SW 00:00:04 30° WNW 00:04:39 10° NNW visible
26 Jul 7.0 21:42:59 13° ESE 21:46:03 21° E 21:49:51 10° NNE visible
26 Jul 6.1 23:23:27 24° SSW 23:26:21 52° W 23:31:28 10° N visible
27 Jul 7.5 21:11:12 10° E 21:12:55 12° ENE 21:14:38 10° NE visible
27 Jul 5.5 22:49:48 26° S 22:52:46 89° E 22:58:02 10° N visible
28 Jul 8.1 00:32:06 10° W 00:34:16 12° WNW 00:36:28 10° NW visible
28 Jul 5.8 22:16:08 22° SSE 22:19:19 50° E 22:24:22 10° NNE visible
28 Jul 7.6 23:56:35 11° WSW 00:00:20 22° WNW 00:04:20 10° NNW visible
29 Jul 6.5 21:42:28 14° SE 21:45:59 29° E 21:50:24 10° NNE visible
29 Jul 6.8 23:22:55 16° SW 23:26:33 37° W 23:31:23 10° NNW visible
30 Jul 7.2 21:09:34 10° ESE 21:12:46 17° ENE 21:15:58 10° NE visible
30 Jul 5.8 22:49:13 19° SSW 22:52:53 66° W 22:58:06 10° N visible
31 Jul 5.5 22:15:30 18° S 22:19:21 71° E 22:24:34 10° N visible
31 Jul 8.0 23:57:34 10° WSW 00:00:39 16° WNW 00:03:47 10° NW visible
01 Aug 6.1 21:41:45 13° SSE 21:45:56 40° E 21:50:47 10° NNE visible
01 Aug 7.3 23:22:24 10° SW 23:26:47 27° WNW 23:31:11 10° NNW visible
02 Aug 6.8 21:08:37 10° SE 21:12:39 23° E 21:16:41 10° NNE visible
02 Aug 6.4 22:48:26 12° SSW 22:53:03 46° W 22:58:05 10° N visible
03 Aug 5.6 22:14:38 12° S 22:19:26 82° W 22:24:41 10° N visible
